EW9869 Weather Reports


Display with metric or nautical units.
time (UTC)temp
F
wind
direction
speed
MPH
gust
MPH
rain 1hr
in
rain 24hr
in
rain mn
in
humidity
%
barometer
mb
20260507051557 45 329 0.0 0.0 0.00 0.00 0.00 56 1019.3
20260507050059 45 329 0.0 0.0 0.00 0.00 0.00 54 1019.4
20260507044600 46 329 0.0 0.0 0.00 0.00 0.00 53 1019.3
20260507043058 47 329 0.0 0.0 0.00 0.00 0.00 53 1019.3
20260507041601 48 329 0.0 0.0 0.00 0.00 0.00 52 1019.1
20260507040107 48 329 0.0 0.0 0.00 0.00 0.00 51 1019.0
20260507034618 50 329 0.0 0.0 0.00 0.00 0.00 49 1018.8
20260507033106 51 329 0.0 0.0 0.00 0.00 0.00 47 1018.6
20260507031555 53 329 0.0 0.0 0.00 0.00 0.00 44 1018.5
20260507030058 56 329 0.0 0.0 0.00 0.00 0.00 44 1018.4
20260507024600 56 329 0.0 0.0 0.00 0.00 0.00 42 1018.3
20260507023053 57 329 0.0 4.0 0.00 0.00 0.00 43 1018.2
20260507021601 58 331 0.0 10.0 0.00 0.00 0.00 43 1018.2
20260507020052 58 340 0.0 6.0 0.00 0.00 0.00 39 1018.2
20260507014553 60 345 0.0 0.0 0.00 0.00 0.00 34 1018.2
20260507013109 60 348 0.0 3.0 0.00 0.00 0.00 36 1018.2
20260507011551 61 343 0.0 4.0 0.00 0.00 0.00 31 1018.2
20260507010054 61 341 0.0 5.0 0.00 0.00 0.00 32 1018.1
20260507004549 61 337 0.0 10.0 0.00 0.00 0.00 31 1018.1
20260507003048 61 333 0.0 6.0 0.00 0.00 0.00 34 1018.1
20260507001607 61 65 0.0 9.0 0.00 0.00 0.00 34 1018.2
20260507000048 61 348 0.0 10.0 0.00 0.00 0.00 36 1018.2
20260506234556 62 341 0.0 2.0 0.00 0.00 0.00 37 1018.2
20260506233045 61 11 0.0 3.0 0.00 0.00 0.00 32 1018.2
20260506231546 61 344 0.0 9.0 0.00 0.00 0.00 36 1018.5
20260506230045 60 84 0.0 8.0 0.00 0.00 0.00 34 1018.6
20260506224600 60 360 0.0 6.0 0.00 0.00 0.00 38 1018.6
20260506223043 60 20 0.0 0.0 0.00 0.00 0.00 37 1018.7
20260506221543 61 16 0.0 5.0 0.00 0.00 0.00 37 1018.9
20260506220048 61 295 1.0 11.0 0.00 0.00 0.00 41 1019.0
20260506214541 61 325 0.0 6.0 0.00 0.00 0.00 39 1019.2
20260506213040 61 36 0.0 0.0 0.00 0.00 0.00 37 1019.4
20260506211547 60 5 0.0 6.0 0.00 0.00 0.00 42 1019.7
20260506210038 60 61 0.0 1.0 0.00 0.00 0.00 37 1019.7
20260506204539 60 339 0.0 9.0 0.00 0.00 0.00 38 1019.8
20260506203035 60 9 0.0 4.0 0.00 0.00 0.00 40 1019.8
20260506201533 59 53 0.0 6.0 0.00 0.00 0.00 39 1019.8
20260506200032 59 334 1.0 10.0 0.00 0.00 0.00 43 1020.3
20260506194535 59 5 0.0 1.0 0.00 0.00 0.00 43 1020.2
20260506193030 59 342 0.0 8.0 0.00 0.00 0.00 41 1020.4
20260506191529 58 321 0.0 11.0 0.00 0.00 0.00 45 1020.4
20260506190029 59 324 0.0 3.0 0.00 0.00 0.00 43 1020.7
20260506184529 58 5 0.0 6.0 0.00 0.00 0.00 42 1020.6
20260506183026 58 5 0.0 3.0 0.00 0.00 0.00 45 1020.8
20260506181524 58 19 0.0 1.0 0.00 0.00 0.00 43 1020.6
20260506180022 57 339 0.0 14.0 0.00 0.00 0.00 45 1020.8
20260506174520 57 5 0.0 1.0 0.00 0.00 0.00 46 1020.5
20260506173022 57 28 0.0 3.0 0.00 0.00 0.00 46 1020.5
20260506171523 56 46 0.0 3.0 0.00 0.00 0.00 45 1020.4
20260506170017 57 360 0.0 0.0 0.00 0.00 0.00 46 1020.4
20260506164517 56 67 0.0 0.0 0.00 0.00 0.00 44 1020.4
20260506163015 55 328 0.0 1.0 0.00 0.00 0.00 46 1020.3
20260506161510 55 86 0.0 6.0 0.00 0.00 0.00 46 1020.2
20260506160007 54 48 0.0 2.0 0.00 0.00 0.00 51 1020.1
20260506154507 50 170 0.0 0.0 0.00 0.00 0.00 66 1020.1
20260506153100 47 170 0.0 0.0 0.00 0.00 0.00 78 1020.3
20260506151554 45 170 0.0 0.0 0.00 0.00 0.00 83 1020.4
20260506150051 42 170 0.0 0.0 0.00 0.00 0.00 87 1020.5
20260506144550 40 170 0.0 0.0 0.00 0.00 0.00 92 1020.5
20260506143041 38 170 0.0 0.0 0.00 0.00 0.00 95 1020.4
20260506141536 36 170 0.0 0.0 0.00 0.00 0.00 95 1020.4
20260506140035 34 170 0.0 0.0 0.00 0.00 0.00 94 1020.2
20260506134529 33 170 0.0 0.0 0.00 0.00 0.00 94 1020.1
20260506133027 33 170 0.0 0.0 0.00 0.00 0.00 94 1019.8
20260506131540 32 170 0.0 0.0 0.00 0.00 0.00 93 1019.8
20260506130034 32 170 0.0 0.0 0.00 0.00 0.00 93 1019.5
20260506124519 32 170 0.0 0.0 0.00 0.00 0.00 93 1019.3
20260506123016 32 170 0.0 0.0 0.00 0.00 0.00 92 1019.2
20260506121516 32 170 0.0 0.0 0.00 0.00 0.00 92 1019.0
20260506120018 32 170 0.0 0.0 0.00 0.00 0.00 92 1018.9
20260506114516 32 170 0.0 0.0 0.00 0.00 0.00 91 1018.8
20260506113012 32 170 0.0 0.0 0.00 0.00 0.00 91 1018.7
20260506111511 32 170 0.0 0.0 0.00 0.00 0.00 92 1018.6
20260506110011 31 170 0.0 0.0 0.00 0.00 0.00 91 1018.4
20260506104508 31 170 0.0 0.0 0.00 0.00 0.00 92 1018.2
20260506103007 31 170 0.0 0.0 0.00 0.00 0.00 92 1018.1
20260506101505 32 170 0.0 0.0 0.00 0.00 0.00 92 1017.9
20260506100003 33 170 0.0 0.0 0.00 0.00 0.00 92 1017.7
20260506094502 34 170 0.0 0.0 0.00 0.00 0.00 92 1017.8
20260506093001 34 170 0.0 0.0 0.00 0.00 0.00 93 1017.6
20260506091600 33 170 0.0 0.0 0.00 0.00 0.00 92 1017.7
20260506090100 33 170 0.0 0.0 0.00 0.00 0.00 92 1017.7
20260506084558 32 170 0.0 0.0 0.00 0.00 0.00 91 1017.8
20260506083100 33 170 0.0 0.0 0.00 0.00 0.00 92 1017.8
20260506081557 34 170 0.0 0.0 0.00 0.00 0.00 92 1017.8
20260506073048 35 170 0.0 0.0 0.00 0.00 0.00 90 1017.9
20260506071548 36 170 0.0 0.0 0.00 0.00 0.00 89 1017.8
20260506061540 35 170 0.0 0.0 0.00 0.00 0.00 87 1017.2